Location: Jackson Park
(37.2862°N, 79.9123°W)
Time: 14:45:05
(UTC+00:00)

Vanguard 2 - Pass Details

Date: 14 May 2026
Orbit: 553 x 2894 km, 32.9° (Epoch: 6 June)

Event Time Altitude Azimuth Distance (km) Brightness Sun altitude
Rises 14:39:46 0° 277° (W) 5,670 11.6 51.2°
Reaches altitude 10° 14:45:55 10° 259° (W) 4,127 11.0 52.4°
Maximum altitude 14:51:19 15° 229° (SW) 3,186 10.7 53.4°
Drops below altitude 10° 14:55:38 10° 195° (SSW) 3,143 10.8 54.2°
Sets 14:59:19 0° 173° (S) 3,711 11.3 54.9°
